Regional Weather Roundup
Issued by NWS

Home | Current Version | Previous Version | Graphics & Text | Print | Product List | Glossary On
Versions: 1 2 3 4 5 6 7 8 9 10 11 12 13 14 15 16 17 18 19 20 21 22 23 24 25 26 27 28 29 30 31 32 33 34 35 36 37 38 39 40 41 42 43 44 45 46 47 48 49 50
000
ASUS43 KDTX 250010
RWRMI
MICHIGAN HOURLY REGIONAL WEATHER ROUNDUP
NATIONAL WEATHER SERVICE DETROIT/PONTIAC MI
800 PM EDT TUE MAY 24 2016

NOTE: "FAIR" INDICATES FEW OR NO CLOUDS BELOW 12,000 FEET WITH NO
SIGNIFICANT WEATHER AND/OR OBSTRUCTION TO VISIBILITY.

MIZ047>049-052>055-059>063-066>070-074>076-081>083-250100-
SOUTHEAST LOWER MICHIGAN

CITY           SKY/WX    TMP DP  RH WIND       PRES   REMARKS
ADRIAN         CLEAR     80  49  33 SW6       30.01R
6HR MIN TEMP:  80; 6HR MAX TEMP:  84;

ALMA           SUNNY     77  46  33 W8G16     29.97R
ANN ARBOR      CLEAR     78  50  37 SW8       30.00R
BAD AXE        CLEAR     79  48  33 W8        29.95S
CARO           CLEAR     79  50  35 W8        29.96R
DETROIT CITY   CLEAR     79  46  31 S12       29.98R
6HR MIN TEMP:  79; 6HR MAX TEMP:  84;

DETROIT        MOCLDY    81  48  31 SW12      29.99R
6HR MIN TEMP:  81; 6HR MAX TEMP:  85;

FLINT          CLEAR     82  50  32 W8        29.98R
6HR MIN TEMP:  82; 6HR MAX TEMP:  88;

GROSSE ILE     CLEAR     70  55  60 S7        29.99R
HILLSDALE      CLEAR     79  38  22 SW6       30.02S
HOWELL         CLEAR     79  48  33 W5        29.99S

CITY           SKY/WX    TMP DP  RH WIND       PRES   REMARKS
JACKSON        PTCLDY    80  48  32 SW8       30.00S
6HR MIN TEMP:  80; 6HR MAX TEMP:  84;

LAMBERTVILLE   CLEAR     82  45  27 W6        30.02R
6HR MIN TEMP:  82; 6HR MAX TEMP:  85;

LANSING        CLEAR     80  50  34 SW8       29.99R
6HR MIN TEMP:  80; 6HR MAX TEMP:  84;

LAPEER         MOCLDY    82  45  27 W9        29.98R
6HR MIN TEMP:  81; 6HR MAX TEMP:  86;

MASON          PTCLDY    80  49  33 CALM      29.99S
MONROE         CLEAR     80  50  34 SW7       29.99S
6HR MIN TEMP:  80; 6HR MAX TEMP:  85;

PONTIAC        PTCLDY    80  48  32 W8        29.98R
6HR MIN TEMP:  80; 6HR MAX TEMP:  84;

PORT HOPE        N/A     83  47  28 W5        29.92R
6HR MIN TEMP:  61; 6HR MAX TEMP:  84;

PORT HURON     PTCLDY    77  50  38 S8        29.98R
TRI CITIES     CLEAR     81  48  31 W12       29.96R
6HR MIN TEMP:  81; 6HR MAX TEMP:  87;

MIDLAND        FAIR      80  46  30 W6        29.95R
6HR MIN TEMP:  80; 6HR MAX TEMP:  86;

TROY           CLEAR     84  46  26 SW8       30.00S
SAGINAW HB     CLEAR     81  45  28 SW7       29.96R
$$
MIZ043>046-050>051-056>058-064>065-071>073-077>080-250100-
SOUTHWEST LOWER MICHIGAN

CITY           SKY/WX    TMP DP  RH WIND       PRES   REMARKS
BATTLE CREEK   SUNNY     79  50  36 SW7       29.99F
6HR MIN TEMP:  79; 6HR MAX TEMP:  83;

BENTON HARBOR  SUNNY     81  49  32 SW5       29.95F
6HR MIN TEMP:  81; 6HR MAX TEMP:  83;

BIG RAPIDS     CLOUDY    75  48  38 SW3       29.97R
6HR MIN TEMP:  75; 6HR MAX TEMP:  82;

COLDWATER      PTCLDY    79  47  32 SW6       30.00S
6HR MIN TEMP:  79; 6HR MAX TEMP:  83;

FREMONT        FAIR      76  50  39 CALM      29.96R
HOLLAND        SUNNY     78  52  40 S5        29.96F
6HR MIN TEMP:  78; 6HR MAX TEMP:  83;

GRAND RAPIDS   PTSUNNY   83  50  31 SW8       29.97F
6HR MIN TEMP:  82; 6HR MAX TEMP:  87;

IONIA          FAIR      80  47  32 W7        29.97S
6HR MIN TEMP:  80; 6HR MAX TEMP:  84;

KALAMAZOO      SUNNY     81  48  31 SW6       29.98S
6HR MIN TEMP:  81; 6HR MAX TEMP:  85;

LUDINGTON      CLOUDY    70  56  61 S10       29.95S
6HR MIN TEMP:  62; 6HR MAX TEMP:  80;

MARSHALL       CLEAR     80  47  30 SW5       29.99S
6HR MIN TEMP:  80; 6HR MAX TEMP:  84;

MOUNT PLEASANT CLOUDY    78  49  35 SW9       29.96S
6HR MIN TEMP:  78; 6HR MAX TEMP:  84;

MUSKEGON       CLOUDY    78  48  34 S6        29.95F
6HR MIN TEMP:  76; 6HR MAX TEMP:  82;

SOUTH HAVEN    SUNNY     82  44  26 CALM      29.96F
$$
MIZ016>042-250100-
NORTHERN LOWER MICHIGAN

CITY           SKY/WX    TMP DP  RH WIND       PRES   REMARKS
ALPENA         CLOUDY    78  46  32 N8        29.92R
6HR MIN TEMP:  77; 6HR MAX TEMP:  89;

BEAVER ISLAND  CLOUDY    56  49  74 W3        29.96R
6HR MIN TEMP:  56; 6HR MAX TEMP:  74;

BELLAIRE       CLOUDY    75  49  38 CALM      29.93R
6HR MIN TEMP:  75; 6HR MAX TEMP:  86;

CADILLAC       CLOUDY    74  49  39 SW13      29.97R
CHARLEVOIX     CLOUDY    55  48  75 NW8       29.99R
FRANKFORT      CLOUDY    71  56  60 S12G20    29.93S
GAYLORD        CLOUDY    76  41  28 SW7       29.95R
6HR MIN TEMP:  76; 6HR MAX TEMP:  86;

GRAYLING       LGT RAIN  78  43  28 W12G17    29.96R
6HR MIN TEMP:  78; 6HR MAX TEMP:  87;

HARBOR SPRINGS CLOUDY    60  50  70 W5        29.96R
HOUGHTON LAKE  CLOUDY    76  45  33 SW9       29.96R
6HR MIN TEMP:  76; 6HR MAX TEMP:  84;

MANISTEE       CLOUDY    72  54  53 S7        29.95S
OSCODA         CLEAR     83  44  25 SW13      29.91R
6HR MIN TEMP:  83; 6HR MAX TEMP:  88;

PELLSTON       LGT RAIN  60  50  69 NW8       29.96R
6HR MIN TEMP:  60; 6HR MAX TEMP:  84; 6HR PCP:  0.01;

ROGERS CITY    MOSUNNY   58  48  68 N6        29.96R
TRAVERSE CITY  CLOUDY    78  52  40 SW8G17    29.90R
6HR MIN TEMP:  78; 6HR MAX TEMP:  89;

$$
MIZ007>008-015-250100-
EASTERN UPPER MICHIGAN

CITY           SKY/WX    TMP DP  RH WIND       PRES   REMARKS
KINROSS          N/A     57  57 100 CALM      29.95R
6HR MIN TEMP:  57; 6HR MAX TEMP:  81;

MACKINAC ISLAN LGT RAIN  60  51  73 NW6       29.94R
6HR MIN TEMP:  58; 6HR MAX TEMP:  72;

NEWBERRY       CLOUDY    61  60  97 SE6       29.92S
6HR MIN TEMP:  60; 6HR MAX TEMP:  74; 6HR PCP:  0.28;

S. S. MARIE    LGT RAIN  60  56  86 NW3       29.93F
6HR MIN TEMP:  60; 6HR MAX TEMP:  82; 6HR PCP:  0.13;

MUNISING         N/A     45  45 100 NE9       29.95R
6HR MIN TEMP:  45; 6HR MAX TEMP:  65; 6HR PCP:  0.69;

$$
MIZ004>006-011>014-085-250100-
CENTRAL UPPER MICHIGAN

CITY           SKY/WX    TMP DP  RH WIND       PRES   REMARKS
MANISTIQUE     PTSUNNY   57  56  97 SE5       29.93R FOG
6HR MIN TEMP:  53; 6HR MAX TEMP:  58; 6HR PCP:  0.41;

ESCANABA       SUNNY     63  59  88 S5        29.91F
6HR MIN TEMP:  57; 6HR MAX TEMP:  70; 6HR PCP:  0.31;

MENOMINEE      PTSUNNY   64  57  78 E5        29.92R
6HR MIN TEMP:  63; 6HR MAX TEMP:  80; 6HR PCP: TRACE;

SAWYER-GWINN   FOG       59  55  88 N12       29.94R VSB 1/2
$$
MIZ001>003-009>011-084-250100-
WESTERN UPPER MICHIGAN

CITY           SKY/WX    TMP DP  RH WIND       PRES   REMARKS
IRON MOUNTAIN  SUNNY     73  63  70 SE7       29.89S
6HR MIN TEMP:  65; 6HR MAX TEMP:  74; 6HR PCP:  0.49;

HOUGHTON       CLOUDY    53  50  89 E8        29.97R FOG
6HR MIN TEMP:  52; 6HR MAX TEMP:  62; 6HR PCP:  0.06;

COPPER HARBOR    N/A     46  45  96 CALM      30.00R
6HR MIN TEMP:  44; 6HR MAX TEMP:  64; 6HR PCP:  0.16;

$$

ABBREVIATIONS USED IN REMARKS
   TC - TEMPERATURE IN CELSIUS
  WCI - WIND CHILL INDEX
   HX - HEAT INDEX
  VSB - VISIBILITY





USA.gov is the U.S. government's official web portal to all federal, state and local government web resources and services.